This is the latest recevied weather packets stored in our database for station/object F4FEB-14. If no packets are shown the sender has not sent any weather packets the latest 10 day(s).
| Time | Temp. | Humidity | Pressure | Rain* | Wind** | Luminosity | Snow |
|---|---|---|---|---|---|---|---|
| 1777986602 | 15.56° C | 100% | 1010.4 hPa | 0 mm | - | - | - |
| 1777986301 | 15.56° C | 100% | 1010.3 hPa | 0.25 mm | - | - | - |
| 1777985999 | 15.56° C | 100% | 1010.4 hPa | 0.25 mm | - | - | - |
| 1777985699 | 16.11° C | 100% | 1010.3 hPa | 0.25 mm | - | - | - |
| 1777985398 | 16.67° C | 100% | 1010.3 hPa | 0.25 mm | - | - | - |
| 1777985097 | 16.67° C | 100% | 1010.3 hPa | 0.25 mm | - | - | - |
| 1777984796 | 16.67° C | 100% | 1010.4 hPa | 0.25 mm | - | - | - |
| 1777984495 | 15.56° C | 100% | 1010.3 hPa | 0.25 mm | - | - | - |
| 1777984194 | 15° C | 100% | 1010.3 hPa | 0 mm | - | - | - |
| 1777983893 | 15° C | 100% | 1010.3 hPa | 0 mm | - | - | - |
| 1777983591 | 15° C | 100% | 1010.4 hPa | 0 mm | - | - | - |
| 1777983291 | 15.56° C | 100% | 1010.5 hPa | 0 mm | - | - | - |
| 1777982990 | 15° C | 100% | 1010.6 hPa | 0 mm | - | - | - |
| 1777982689 | 13.89° C | 100% | 1010.6 hPa | 1.02 mm | - | - | - |
| 1777982388 | 13.33° C | 100% | 1010.7 hPa | 1.02 mm | - | - | - |
| 1777982087 | 12.78° C | 100% | 1010.8 hPa | 1.02 mm | - | - | - |
| 1777981785 | 12.78° C | 100% | 1010.9 hPa | 1.02 mm | - | - | - |
| 1777981484 | 12.78° C | 100% | 1010.9 hPa | 1.02 mm | - | - | - |
| 1777980881 | 12.78° C | 100% | 1010.8 hPa | 0.76 mm | - | - | - |
| 1777980581 | 12.78° C | 100% | 1011 hPa | 0.76 mm | - | - | - |
| 1777979978 | 12.78° C | 100% | 1010.8 hPa | 0.51 mm | - | - | - |
| 1777979677 | 12.78° C | 100% | 1010.9 hPa | 0.25 mm | - | - | - |
| 1777979075 | 13.89° C | 100% | 1010.9 hPa | 0.51 mm | - | - | - |
| 1777978170 | 13.89° C | 100% | 1010.8 hPa | 0 mm | - | - | - |
| 1777977870 | 14.44° C | 100% | 1010.8 hPa | 0 mm | - | - | - |
* Rain latest hour (hover to see other rain measurements)
** Current wind speed in m/s (hover to see current wind gust speed)